Wind_Speed
23 23 22 20 17 14 13 13 13 14 13 14 13 12 13 13 13 13 13 13 12 11 8 6 5 5 6 6 8 10 10 12 12 10 8 6 6 6 5 4 3 2 1 1 1 2 3 3 2 3 6 7 10 11 11 13 12 12 10 10 13 13 14 14 13 13 12 12 14 15 19 19 16 17 18 14 16 18 15 15 14 12 11 10 11 13 20 26
23 24 23 20 17 14 13 13 13 13 13 13 12 11 12 12 13 13 13 12 12 11 8 7 5 5 5 6 8 8 10 12 10 8 7 7 6 5 4 4 3 2 2 2 1 1 3 3 2 3 6 7 8 10 10 12 14 12 9 10 13 12 13 14 15 14 14 14 13 14 17 19 18 17 16 15 18 21 17 17 17 14 11 10 14 21 27 30
23 24 23 20 17 14 13 13 13 13 12 12 11 10 11 12 12 12 13 12 12 11 9 7 6 6 5 6 7 7 9 9 7 7 7 6 6 5 4 4 3 3 4 2 2 1 2 2 2 4 6 6 7 9 10 12 13 13 12 10 12 13 14 12 11 13 13 13 12 12 15 18 20 20 16 15 18 21 19 18 18 18 16 13 18 24 28 31
23 23 22 20 17 15 14 14 13 12 11 11 10 9 10 11 11 12 12 12 12 12 10 8 7 5 5 6 6 7 7 5 5 5 4 5 6 6 5 4 4 5 6 4 4 3 3 3 2 3 5 6 7 8 9 12 10 12 14 11 11 10 11 10 8 12 12 12 15 13 13 17 20 21 19 17 15 16 19 21 21 19 21 19 20 25 29 31
23 23 22 19 17 16 15 14 13 12 11 11 10 9 9 9 10 10 11 11 11 11 11 9 7 6 5 5 5 6 6 4 5 3 1 4 4 5 6 4 5 6 7 4 4 3 3 3 2 3 5 4 6 7 9 12 10 10 14 15 16 9 7 10 11 14 13 13 16 15 14 15 18 21 23 21 16 13 16 22 23 21 21 20 22 26 29 32
22 22 21 18 16 16 14 13 12 11 11 11 11 10 8 8 9 9 10 10 10 11 11 10 8 7 6 6 6 4 4 1 5 0 1 1 1 4 5 4 4 6 5 3 3 2 3 2 4 3 3 3 4 6 6 10 10 9 12 15 19 15 9 10 11 12 13 12 14 17 17 17 18 20 22 23 20 18 18 19 20 21 22 21 23 25 29 31
22 21 20 17 16 15 13 12 11 11 11 11 12 12 9 8 7 8 9 9 10 10 10 9 8 7 7 7 8 5 2 5 4 2 2 2 2 3 3 3 4 4 3 1 1 1 1 1 2 1 3 3 3 4 3 6 10 9 11 12 15 15 14 14 13 12 13 14 13 15 17 16 18 17 19 24 23 23 21 15 13 15 19 19 21 24 28 31
21 21 19 17 16 15 12 11 11 10 10 10 11 12 11 8 6 6 7 8 9 9 9 9 8 7 6 6 3 4 7 5 3 5 3 4 4 2 2 3 3 4 1 1 0 0 1 1 0 1 4 1 1 3 2 5 10 11 11 12 13 14 16 16 16 16 15 16 15 14 14 16 19 18 19 21 19 23 21 14 11 12 15 17 21 25 28 32
21 21 19 16 15 14 11 10 11 10 10 10 11 12 12 9 5 4 6 7 7 8 9 8 8 6 5 3 3 1 7 4 3 6 5 2 1 0 2 1 2 2 1 1 0 2 2 1 1 2 4 2 2 4 2 5 6 6 8 10 11 13 15 17 17 18 17 17 17 16 16 18 21 18 17 20 18 18 19 17 16 13 13 16 20 25 26 30
21 21 19 16 15 13 10 9 10 11 11 11 12 12 12 9 5 3 4 5 6 8 8 7 7 6 6 3 5 0 6 4 4 5 4 4 3 3 3 1 1 0 2 1 2 3 3 2 1 2 4 3 4 4 4 6 3 2 7 9 11 12 13 15 17 19 19 18 20 18 17 19 23 19 16 22 23 18 18 19 19 16 15 17 19 23 24 27
22 21 20 17 15 13 10 9 10 11 13 13 13 13 13 9 4 1 2 4 6 7 7 7 6 5 7 5 4 4 5 4 3 2 2 3 3 2 1 1 1 2 2 2 3 3 4 3 2 4 4 2 3 5 6 6 6 6 9 10 12 13 13 14 15 18 18 17 21 20 18 20 22 21 19 22 24 23 23 21 21 20 18 19 19 21 23 25
23 21 19 16 15 13 10 9 10 12 14 15 14 14 13 7 2 1 1 3 5 6 7 7 5 4 5 3 5 6 4 3 2 1 2 2 1 1 3 3 2 2 3 3 2 2 4 4 5 7 4 3 5 5 2 3 7 9 10 10 12 13 13 15 14 17 18 16 21 20 16 19 21 23 23 23 20 19 24 25 24 22 20 21 21 21 22 25
24 22 19 16 15 13 11 9 9 12 14 15 16 14 10 4 2 2 1 3 4 5 6 7 5 3 1 2 7 6 5 4 2 1 1 0 1 2 3 2 2 3 3 4 3 2 4 4 6 8 6 7 7 5 5 6 8 9 10 9 9 10 11 14 15 17 17 17 22 18 12 16 22 26 25 25 22 17 19 22 24 24 22 21 21 21 21 23
24 22 19 16 15 14 11 9 9 12 14 16 16 12 7 1 3 2 1 2 3 4 5 6 4 2 1 3 5 5 7 6 5 4 2 1 1 3 2 3 3 4 5 4 4 4 4 5 6 8 7 8 9 7 8 10 9 8 9 7 7 8 8 11 14 15 15 16 24 21 13 14 18 24 29 30 26 22 21 20 22 25 23 22 21 21 20 20
24 21 18 17 16 14 11 9 10 12 14 16 14 8 4 2 4 2 0 2 3 3 4 6 4 1 2 4 5 3 6 7 7 5 3 1 2 2 1 3 5 5 6 5 7 7 6 6 7 7 6 7 8 8 8 7 7 7 7 7 7 8 7 9 11 13 13 15 24 22 13 14 16 18 28 33 28 26 27 24 22 24 24 23 21 20 20 19
23 21 18 18 16 13 11 9 11 12 14 16 11 5 3 3 3 1 1 2 2 2 3 6 3 2 2 4 4 3 5 8 6 5 4 2 3 2 1 3 3 4 6 6 8 7 6 7 8 7 5 6 6 6 6 5 6 6 7 7 8 8 6 7 10 13 15 13 21 23 14 11 14 16 23 29 29 27 27 27 25 23 24 23 21 19 18 18
23 20 18 18 16 13 10 9 11 12 13 14 9 5 4 4 3 1 2 3 3 1 1 6 3 4 1 5 4 5 8 10 6 5 6 2 3 3 3 2 2 3 3 4 5 5 7 8 7 6 6 5 4 4 5 5 5 4 6 7 8 9 7 7 7 12 17 15 17 21 17 12 13 17 21 22 24 26 26 27 26 25 24 22 21 20 17 17
22 20 17 17 17 13 11 9 10 11 13 13 7 4 4 3 3 3 4 3 1 2 2 5 3 5 2 6 6 8 11 10 6 5 5 4 4 3 3 3 3 4 5 6 6 7 7 8 6 4 4 4 3 4 5 5 5 5 5 5 7 9 8 9 7 6 12 16 16 16 16 17 16 17 20 20 21 23 24 25 25 25 24 21 20 18 18 19
21 20 16 16 17 14 11 9 10 11 12 13 7 3 3 3 3 5 7 6 2 1 1 5 5 1 3 7 7 9 10 8 4 4 4 4 4 2 3 4 4 6 8 6 5 6 5 6 6 4 2 2 3 4 6 7 8 8 8 7 8 8 7 9 9 4 6 11 13 14 14 16 18 17 18 20 22 23 22 23 23 24 24 22 21 19 20 19
21 20 16 14 16 15 11 10 10 11 12 14 10 4 2 1 3 4 6 6 5 5 4 5 5 3 5 8 8 10 9 4 2 4 4 4 3 3 4 4 6 8 7 4 2 3 4 6 4 2 3 4 6 6 8 9 8 8 8 8 9 9 7 9 9 4 4 8 10 14 15 15 17 17 17 19 22 22 21 22 22 23 22 21 21 21 20 18
21 21 16 13 15 15 11 10 10 11 12 14 11 5 2 2 1 2 3 3 7 7 5 4 4 2 5 7 7 11 9 4 2 3 5 5 4 5 3 3 7 5 2 3 4 2 4 6 3 1 4 6 7 6 7 8 8 8 8 8 8 8 8 9 7 2 3 8 8 11 14 15 15 15 17 20 20 19 20 21 22 23 20 17 19 21 21 19
22 21 16 12 14 14 11 9 9 10 11 12 10 6 5 3 1 2 0 1 5 6 4 4 4 3 5 5 6 12 10 6 3 3 6 6 5 4 2 4 5 3 1 4 6 4 6 6 2 1 4 5 4 3 5 7 7 7 6 7 7 6 7 8 6 3 5 7 7 8 10 13 15 15 16 17 17 18 21 21 21 21 19 17 19 20 20 20
22 21 15 11 12 14 11 9 9 9 10 9 8 6 5 3 2 3 1 1 2 4 4 4 4 6 7 4 6 13 9 4 4 4 8 8 5 4 5 5 4 4 4 4 4 4 5 3 2 1 4 6 4 2 4 5 4 5 5 5 5 4 6 5 4 5 6 6 7 6 7 8 12 14 15 18 20 21 22 23 22 20 19 18 18 19 19 18
23 20 14 11 12 13 10 7 8 8 8 7 5 5 4 4 3 3 1 3 1 3 2 4 4 6 10 7 8 12 5 1 5 6 7 8 7 5 5 4 5 6 3 3 5 7 6 1 3 2 5 6 6 4 4 5 3 2 3 4 4 4 5 4 1 3 6 7 7 6 6 6 8 11 12 14 17 18 19 22 23 21 20 18 18 20 19 17
23 18 14 11 11 12 10 6 7 8 7 5 4 4 3 4 4 3 1 4 2 2 1 3 3 5 10 8 9 10 4 1 4 6 7 7 8 7 4 3 5 4 1 3 6 6 5 1 1 5 6 5 7 6 2 4 4 1 2 4 5 5 5 5 5 5 6 8 7 6 7 5 7 9 9 9 11 13 15 17 21 22 21 19 18 19 19 17
22 17 13 12 10 10 8 4 6 8 5 2 4 4 3 4 3 2 2 5 2 2 1 3 3 5 9 8 10 9 5 1 5 5 6 6 5 6 6 2 3 3 4 5 5 4 1 2 2 6 6 6 8 6 1 3 6 2 1 5 6 5 5 5 6 6 5 4 6 6 7 3 6 8 7 6 8 12 14 15 18 21 21 20 19 18 19 18
21 16 13 12 10 8 5 3 6 7 3 3 6 6 4 4 2 1 3 5 1 3 4 5 4 6 10 8 11 9 4 6 6 3 7 8 4 5 7 2 1 3 3 4 3 2 2 2 4 5 7 8 7 5 0 2 6 1 1 5 6 5 5 5 6 5 3 1 5 8 8 3 4 6 7 5 6 10 13 14 16 19 21 21 19 16 16 15
20 15 12 12 9 6 4 4 5 4 3 5 6 6 5 3 1 2 4 3 1 3 3 4 3 6 10 7 7 6 3 8 6 4 9 7 4 5 6 3 4 4 3 6 3 2 2 4 3 4 7 6 4 2 2 3 6 1 2 6 6 6 6 5 6 4 2 3 5 7 7 5 3 6 7 6 6 8 11 13 15 17 16 15 11 7 8 9
19 14 11 12 9 5 5 5 4 3 5 7 6 7 5 0 3 4 4 2 1 2 2 4 3 6 10 5 3 5 4 6 5 6 8 4 4 4 4 2 5 6 3 6 4 2 1 3 3 4 5 3 3 3 2 5 6 3 4 7 7 7 7 5 5 3 2 5 5 5 6 6 4 6 6 6 6 6 9 10 9 8 6 4 2 3 2 3
17 12 10 11 8 5 5 4 4 5 6 7 7 5 1 3 3 5 3 1 2 3 3 4 4 6 10 6 3 5 5 6 7 7 4 1 4 3 2 2 5 5 3 5 3 2 3 1 2 2 4 5 5 4 4 6 6 5 7 8 7 7 6 5 4 3 3 5 4 4 5 7 4 5 4 4 4 3 3 6 7 8 9 10 10 12 13 12
16 11 8 8 7 5 4 3 5 6 6 7 5 1 2 3 3 4 1 1 1 4 3 3 5 6 8 5 4 6 5 5 7 7 4 2 3 5 1 2 4 4 4 4 2 3 4 5 4 2 4 5 5 5 5 7 7 7 7 6 5 5 5 5 4 4 5 4 4 4 5 8 3 5 6 8 10 12 8 8 10 11 13 15 16 18 19 20
15 10 7 6 6 5 4 3 5 6 6 7 3 2 4 4 3 1 2 1 3 4 4 4 6 7 6 4 5 7 4 5 8 6 5 4 3 5 5 4 4 3 2 1 1 3 4 3 2 2 1 6 6 5 5 7 7 7 7 5 5 4 4 5 5 5 4 3 5 4 4 6 3 8 9 11 12 12 11 11 13 14 15 16 17 18 19 20
15 8 6 4 5 5 4 5 5 6 6 6 2 4 5 4 1 2 3 2 1 3 4 4 5 6 5 4 5 7 2 4 8 5 3 4 3 4 5 7 7 4 2 3 2 2 3 4 1 3 2 6 8 5 1 2 4 5 4 4 4 3 4 6 5 5 4 4 6 3 3 6 6 8 10 11 12 12 13 14 16 16 15 15 16 17 17 19
13 6 5 4 5 5 5 5 5 5 5 4 3 5 4 3 1 1 1 3 3 2 3 4 5 3 3 4 6 7 3 4 7 5 3 3 3 4 5 6 7 5 3 3 1 2 2 3 2 2 3 7 7 5 5 5 4 3 3 4 4 3 4 4 2 2 3 4 6 5 4 5 4 6 8 10 11 13 14 15 16 16 15 14 15 17 17 17
11 3 6 4 4 4 5 4 4 5 4 3 5 4 2 0 1 1 1 3 2 3 2 2 5 3 3 4 6 6 3 4 5 4 4 4 4 5 4 5 8 7 4 3 1 2 3 2 4 3 3 8 7 4 5 7 4 0 2 4 3 2 3 2 1 3 2 2 5 5 4 2 5 6 8 9 10 12 14 15 16 16 16 15 16 17 18 17
7 2 5 3 3 4 4 3 4 4 3 5 5 1 1 2 2 1 2 3 2 4 4 2 3 4 4 3 5 7 3 2 5 4 3 4 4 6 5 4 7 7 5 4 2 2 2 2 5 2 1 7 8 3 4 5 3 1 3 2 2 4 4 2 2 2 3 3 4 3 4 5 6 7 8 8 9 11 12 14 15 16 17 16 16 17 17 17
3 4 3 1 3 4 3 3 3 2 2 5 2 2 2 2 3 2 2 2 2 3 4 1 2 4 4 3 5 8 4 3 5 5 3 2 2 6 6 4 5 7 6 4 2 2 3 1 4 2 2 7 6 4 3 3 5 5 1 2 2 1 3 3 2 2 4 3 3 3 5 5 6 5 5 7 9 10 12 12 14 16 18 17 17 17 18 18
2 6 3 2 4 4 3 3 2 0 3 3 2 3 0 2 2 1 2 2 2 2 2 3 3 2 3 4 4 7 7 5 5 4 3 2 2 3 5 4 4 6 5 4 2 2 3 3 3 3 5 7 5 6 4 2 2 5 3 1 2 2 1 2 2 3 4 4 3 5 4 4 4 3 4 7 9 11 12 13 13 15 17 18 18 19 20 19
1 5 3 3 5 4 4 2 1 2 4 2 3 3 1 2 3 1 1 2 3 2 2 3 2 1 2 4 4 6 7 5 5 4 3 3 2 2 5 5 4 7 5 2 3 1 2 3 2 3 7 6 3 4 2 2 1 2 1 2 2 2 1 1 2 2 2 3 4 5 5 4 2 4 6 8 10 11 12 13 12 14 17 18 18 20 20 21
1 4 2 3 5 3 2 1 2 3 2 1 2 2 2 2 3 2 1 2 3 3 2 2 2 2 3 4 4 4 5 5 5 4 3 4 3 2 6 6 4 6 4 1 1 1 1 2 1 2 5 3 1 3 5 4 3 2 1 0 0 1 1 1 1 2 2 3 4 4 5 4 5 5 6 9 10 11 13 13 12 15 19 19 19 20 21 21
2 3 0 4 5 1 2 2 2 1 0 2 2 3 2 1 2 2 1 2 2 2 2 1 2 2 2 3 3 3 4 5 4 4 3 4 3 2 6 7 6 6 2 1 1 1 1 2 3 3 3 1 3 4 5 7 7 5 3 3 3 2 2 3 3 2 2 2 1 2 4 4 5 4 6 9 10 11 14 15 14 17 20 20 20 21 21 22
2 2 2 5 3 2 1 2 2 0 1 2 2 2 1 0 0 1 2 2 2 0 0 1 1 2 2 3 4 4 4 4 3 4 4 5 5 4 5 6 7 6 3 1 2 2 1 2 2 1 2 3 4 4 4 8 8 6 5 5 4 3 3 3 1 1 1 1 0 2 2 4 5 5 7 10 11 14 17 17 17 19 21 22 22 23 23 22
4 3 3 5 1 2 3 2 3 2 1 3 2 2 1 1 1 1 2 2 1 1 1 0 1 2 2 3 4 4 4 4 3 4 4 5 6 6 5 6 5 5 4 2 2 1 1 2 2 1 3 4 4 5 4 7 6 4 4 6 6 4 4 5 3 2 2 1 1 3 3 5 5 5 9 12 14 17 18 18 18 20 21 22 24 25 25 25
4 3 3 5 2 3 4 2 1 2 3 3 3 4 3 1 0 1 2 1 1 1 1 2 2 1 2 3 3 4 4 3 3 5 5 5 6 6 6 5 3 4 5 4 3 1 2 2 2 2 1 3 3 3 2 3 5 3 3 6 7 6 6 5 3 3 3 1 2 3 2 5 4 6 10 13 16 17 18 18 19 20 21 23 24 25 25 26
5 3 2 3 4 0 1 2 2 1 3 4 3 3 3 2 2 1 2 1 1 2 2 1 1 1 2 2 2 3 4 2 3 5 6 5 5 6 5 4 3 6 6 4 5 4 3 3 3 3 3 2 1 1 1 1 3 2 3 7 8 7 7 5 4 3 2 4 4 3 0 2 4 8 11 14 16 17 19 21 21 21 22 23 25 26 26 27
4 2 1 1 3 2 2 3 2 2 2 4 3 3 2 3 3 2 2 1 1 2 3 1 0 2 1 3 3 3 4 2 2 4 6 5 5 6 5 4 5 7 6 3 4 4 2 3 5 5 5 4 3 4 2 1 4 5 6 9 9 9 8 4 2 2 3 4 4 2 5 7 8 10 13 15 17 17 18 22 24 23 23 23 24 25 27 28
4 2 3 3 1 1 2 3 1 1 1 2 2 2 2 2 2 3 2 1 1 1 2 1 1 2 2 4 3 3 5 4 2 4 6 5 5 4 4 3 6 7 3 2 5 5 3 3 6 6 6 5 7 10 8 6 8 8 7 8 9 9 8 6 4 3 4 4 2 4 8 9 9 12 14 15 16 17 19 23 25 25 25 25 25 25 27 28
3 2 2 3 2 1 0 2 2 0 2 2 1 1 2 2 1 1 2 2 1 2 2 2 1 1 2 2 2 3 5 4 3 5 6 5 5 3 3 2 6 7 4 4 6 5 2 3 5 4 7 10 11 12 11 9 9 8 8 9 9 8 8 7 5 4 4 4 4 6 9 10 10 12 14 15 17 20 22 26 27 26 26 26 26 27 27 27
3 1 1 2 2 2 2 3 2 1 3 2 2 2 3 3 2 0 0 2 4 3 2 3 1 1 1 1 2 4 5 4 4 5 6 5 5 5 4 3 4 8 7 5 6 5 3 2 3 5 10 11 10 10 11 11 11 10 10 11 11 9 8 7 5 3 3 4 6 8 9 9 7 9 13 17 21 24 27 28 27 27 27 27 28 29 28 28
2 1 2 2 2 1 1 0 2 3 3 2 3 2 3 3 2 0 0 3 5 3 2 3 1 2 1 1 2 3 5 5 5 4 5 5 5 5 5 4 5 7 8 5 5 6 4 1 2 4 7 8 8 8 8 8 7 9 12 13 13 12 10 8 6 4 2 3 5 7 8 6 5 9 16 20 22 24 25 27 27 27 27 27 29 31 31 31
3 1 2 4 3 0 1 2 2 3 3 3 3 2 3 3 1 1 1 3 4 2 1 2 3 1 1 1 2 4 6 6 7 4 4 4 4 4 4 5 6 7 6 6 5 6 4 1 4 4 4 6 8 9 6 2 2 3 10 15 14 12 11 8 6 5 3 4 6 7 6 6 8 14 19 20 21 24 24 25 26 27 27 27 29 31 33 34
4 2 1 4 2 1 2 2 2 3 2 0 1 2 2 2 2 1 2 3 3 2 1 3 5 3 2 1 4 7 8 9 8 5 3 2 2 3 4 5 7 7 6 6 4 4 4 2 2 3 3 3 6 8 8 6 4 2 8 12 13 12 11 9 8 6 3 2 4 6 7 9 12 15 17 17 20 23 25 25 26 27 28 27 26 29 33 36
Wind_Direction
0 360 360 360 0 360 357 357 357 357 360 2 5 12 16 19 21 21 24 25 25 27 28 46 71 81 82 101 108 98 91 83 78 72 70 86 93 83 69 63 57 38 79 39 340 235 198 183 167 148 186 189 202 212 202 206 208 208 220 230 232 233 233 234 237 237 242 235 226 208 198 211 214 206 213 215 221 223 219 219 219 209 190 187 199 192 199 191
360 359 358 358 359 358 356 354 354 355 358 2 5 11 18 22 24 26 29 29 29 30 34 51 76 83 86 113 118 113 100 87 85 77 79 90 85 76 66 62 50 43 75 45 22 205 204 193 169 176 201 192 194 201 197 203 209 214 222 230 233 237 240 243 251 247 239 233 217 203 206 216 220 215 212 217 223 222 223 222 216 206 195 188 165 171 189 183
1 359 358 357 358 356 354 353 353 356 357 2 5 10 19 23 27 31 32 33 33 32 38 51 74 85 93 125 135 132 114 101 95 76 79 87 75 64 51 60 57 65 88 84 98 134 182 168 180 206 212 204 198 197 200 200 206 222 228 235 236 241 249 246 255 253 236 227 217 209 217 223 225 223 219 223 228 226 226 225 218 204 200 198 161 166 183 176
1 360 358 357 357 355 353 353 356 0 0 2 2 8 18 22 27 32 32 33 35 36 40 48 68 79 88 122 148 143 139 154 115 74 84 86 65 51 42 67 82 86 96 101 107 115 148 159 197 214 224 214 191 199 211 201 199 221 227 240 244 244 255 244 237 242 235 232 234 231 228 228 227 227 228 228 228 228 226 226 227 213 205 200 170 170 180 176
1 -0 359 357 356 354 353 357 3 6 6 4 2 7 14 19 26 31 30 30 34 38 42 46 56 64 71 106 146 154 191 206 107 83 89 76 61 50 42 68 103 102 96 90 99 115 139 161 203 204 232 222 182 204 215 206 209 230 233 245 252 257 272 251 235 234 233 234 237 236 234 233 229 228 230 230 230 231 226 226 229 223 215 200 178 176 179 180
360 0 358 357 356 354 355 0 6 9 10 6 5 8 8 13 21 27 27 26 33 38 41 43 47 53 66 89 103 131 236 316 80 323 268 50 24 48 40 64 108 114 99 79 91 130 140 172 217 205 234 224 193 217 213 207 217 237 240 243 249 253 261 256 246 237 232 231 231 231 235 236 232 230 229 231 235 236 234 233 228 223 220 203 187 183 179 182
358 360 359 358 355 355 357 0 5 8 8 9 10 7 5 6 11 22 24 24 31 33 35 38 43 52 73 90 89 89 43 49 58 312 281 263 300 30 32 52 103 121 101 77 109 132 145 188 229 199 245 226 204 226 207 217 225 239 250 245 246 249 249 251 253 248 239 237 231 229 236 237 233 233 231 231 234 234 234 234 226 226 225 201 190 193 186 186
356 359 359 357 356 356 356 358 2 4 6 10 10 6 2 357 357 13 19 24 28 29 31 34 44 54 74 90 105 93 64 55 31 359 342 264 271 351 23 41 90 115 111 264 104 329 228 230 51 230 256 257 161 226 217 240 230 230 250 254 252 250 247 247 248 245 242 240 235 234 240 236 231 234 237 233 228 228 227 223 216 224 229 201 194 205 196 191
355 357 359 356 356 356 354 355 356 359 359 359 0 358 356 349 344 2 18 25 26 29 29 32 47 50 65 81 231 130 59 43 14 16 15 15 241 104 68 78 83 102 209 252 218 265 251 255 340 293 296 339 227 236 235 255 234 217 251 264 259 254 249 244 241 239 240 238 234 236 237 232 229 235 243 234 223 221 221 222 220 215 218 206 202 210 203 197
355 356 357 356 354 355 353 352 352 353 351 350 350 348 347 342 329 344 18 25 29 31 28 34 46 46 53 28 261 130 51 26 26 21 31 76 111 112 97 150 110 168 248 259 235 254 273 279 294 297 290 264 238 247 236 257 306 310 268 271 266 263 256 245 238 233 234 234 233 234 236 231 227 230 238 228 222 222 221 222 221 215 212 209 210 213 209 205
355 355 357 356 353 353 351 349 349 348 346 345 345 342 340 336 309 294 23 27 31 30 28 35 35 51 61 16 328 54 48 26 34 26 83 102 115 120 170 240 267 253 256 267 245 252 261 261 256 257 263 244 242 245 235 254 290 284 270 273 263 257 252 242 237 231 229 230 228 232 240 236 229 229 231 226 224 224 224 226 222 218 217 212 214 214 210 210
356 355 357 356 353 352 349 347 345 343 343 341 341 338 334 332 266 208 38 32 32 29 28 32 30 57 80 47 37 55 53 47 60 98 103 121 153 198 240 246 253 251 259 270 265 254 247 244 240 246 271 311 273 260 253 253 269 271 269 273 263 253 244 233 230 227 225 226 221 225 238 235 230 229 226 224 225 221 219 225 225 220 219 216 216 215 210 210
356 355 359 358 355 353 349 347 344 343 344 342 340 337 335 337 185 183 63 35 28 28 29 29 39 64 60 67 60 52 58 57 35 38 39 54 202 248 253 231 238 268 268 269 281 267 244 237 238 252 276 277 269 299 314 268 259 270 262 258 262 258 243 227 223 221 221 223 214 214 232 230 227 228 225 221 219 218 216 220 224 221 218 218 217 217 213 209
356 356 360 1 357 354 350 348 348 348 347 346 343 340 345 39 158 152 72 36 25 22 31 21 34 81 0 70 71 50 63 56 33 23 335 349 324 265 241 223 250 273 265 258 257 251 246 233 236 254 255 254 272 297 288 261 245 258 262 255 252 257 251 223 213 212 216 216 207 209 231 232 226 223 222 223 219 219 224 219 220 220 217 217 215 216 217 209
357 356 360 3 360 355 352 350 352 352 350 351 350 350 10 106 141 148 18 25 12 10 29 8 13 167 230 100 75 25 51 40 28 21 342 352 337 290 183 251 264 265 255 248 245 251 254 223 225 253 247 237 261 271 265 255 240 245 258 257 240 240 256 234 209 209 218 210 203 208 229 234 230 221 216 221 220 220 226 222 220 218 214 216 214 212 217 209
357 355 359 2 0 358 355 350 352 354 354 356 360 12 50 100 120 146 352 355 336 0 22 355 355 223 261 78 62 2 18 7 3 10 355 345 322 314 311 279 255 254 255 250 248 250 239 209 221 258 261 239 242 257 262 258 244 231 238 257 256 245 253 237 203 205 220 214 204 210 228 234 228 230 220 214 215 219 224 223 222 221 217 218 216 211 218 213
357 354 356 -0 0 359 355 353 352 353 358 1 7 39 66 93 101 71 0 339 338 16 23 2 350 211 340 48 29 357 355 346 347 355 346 330 299 291 300 291 237 240 240 236 228 208 201 204 224 239 234 241 249 265 263 256 254 235 228 245 259 257 263 256 211 196 214 221 214 213 225 240 227 228 225 209 210 220 222 221 222 223 222 221 218 211 218 223
357 352 352 358 -0 357 354 354 351 352 1 4 9 48 58 83 92 55 32 25 20 212 189 26 5 205 111 38 7 348 340 338 346 350 350 345 313 283 283 291 268 235 205 196 186 186 201 205 222 236 215 221 238 251 260 287 303 291 262 253 258 247 241 255 247 190 207 223 227 220 220 232 233 228 221 207 211 221 220 220 222 223 222 222 221 212 214 224
357 351 347 354 358 356 354 352 349 354 2 7 17 54 60 86 105 72 51 44 36 249 146 34 7 271 12 10 352 336 332 335 348 356 353 341 323 286 268 279 275 250 232 217 181 185 220 215 218 250 250 255 295 284 285 303 307 294 276 270 275 257 234 250 253 216 219 232 231 232 228 226 230 230 221 210 213 220 219 219 221 222 223 222 221 216 217 223
355 350 343 347 356 355 352 350 348 354 2 10 21 41 55 107 164 108 61 46 47 43 51 33 7 343 341 344 334 335 338 319 332 5 348 344 327 264 244 259 255 245 248 262 220 176 241 246 231 262 319 332 324 299 284 288 287 279 267 253 254 257 256 252 244 220 235 248 228 226 235 230 227 228 221 217 217 217 218 219 220 220 220 220 220 218 219 225
353 350 342 341 353 354 351 350 347 353 3 13 24 50 49 349 267 110 64 73 71 53 57 42 20 344 330 328 321 340 343 291 268 5 355 358 313 264 235 261 258 242 248 283 264 208 237 254 253 328 329 326 319 300 275 269 262 258 255 250 242 239 251 244 235 212 211 243 232 212 227 231 226 229 223 222 222 214 212 217 220 220 217 214 218 219 221 226
352 350 342 338 350 354 353 350 348 354 5 18 35 62 67 44 109 127 119 136 81 53 56 45 31 17 342 321 321 339 329 280 271 5 5 350 311 309 321 275 270 285 279 250 247 227 233 247 227 342 319 306 300 293 265 258 258 254 246 253 252 241 252 242 225 228 211 233 236 205 220 227 218 225 225 223 227 217 210 212 215 219 219 213 213 217 223 228
352 351 345 339 346 353 355 352 353 357 6 25 46 54 59 64 110 128 124 261 108 67 54 30 17 9 358 343 338 337 320 288 315 354 1 342 323 334 309 281 287 288 261 251 268 262 254 255 99 337 293 281 269 251 255 259 258 262 262 259 256 246 254 239 183 195 205 232 260 232 224 228 209 214 221 219 225 223 215 214 215 218 221 220 217 216 220 223
352 352 349 341 343 352 355 357 360 358 7 24 42 41 45 44 46 86 40 275 189 82 53 37 32 9 0 349 337 335 318 331 338 339 351 338 325 306 287 297 288 265 253 304 303 275 270 333 57 278 262 268 266 244 251 268 256 264 300 300 287 277 272 276 222 196 198 216 251 256 230 218 193 203 214 210 216 223 219 216 217 220 223 226 227 226 226 222
351 352 352 346 343 349 355 8 3 357 10 25 20 8 23 30 36 71 351 253 198 102 124 58 40 2 357 341 338 337 293 262 347 343 350 335 321 302 282 283 273 280 317 302 291 271 269 64 30 269 248 254 265 256 272 293 279 243 313 326 318 298 277 265 253 225 208 199 203 237 238 190 170 201 208 191 198 213 218 217 216 218 223 229 230 233 237 235
348 350 352 348 343 347 4 21 354 0 23 12 337 345 359 4 20 75 309 246 200 54 23 12 3 11 5 343 338 322 250 5 6 354 352 331 320 298 288 253 230 302 328 295 290 270 250 118 237 277 263 250 252 249 268 293 280 234 39 325 305 288 275 254 248 229 223 194 164 220 251 172 162 196 183 170 190 200 205 212 215 215 219 225 227 229 235 237
346 346 346 347 342 345 6 357 343 9 23 293 319 341 340 336 343 170 265 238 156 23 351 352 351 9 3 344 339 318 262 350 343 8 1 334 326 273 275 320 250 285 312 289 292 239 252 241 230 262 264 253 247 239 122 291 281 266 79 307 288 277 283 267 257 239 228 184 161 204 240 238 173 162 140 161 198 194 194 200 209 213 214 219 225 230 232 233
341 338 339 343 339 340 343 335 356 6 317 309 326 333 325 321 253 222 259 241 55 10 350 354 349 0 353 336 349 356 354 341 321 14 2 332 341 273 253 341 326 303 296 274 289 116 255 275 260 268 260 251 253 276 20 286 271 347 16 290 283 277 281 276 262 242 206 224 194 181 209 230 184 136 129 167 196 188 186 191 202 209 210 213 222 241 243 236
336 330 331 336 337 339 327 329 1 331 314 333 332 326 327 246 181 228 256 253 349 21 14 357 353 352 345 329 13 31 16 352 342 354 347 337 6 312 249 2 319 295 264 254 288 30 0 312 307 284 270 279 309 312 314 268 270 341 321 276 267 262 262 263 257 242 207 225 206 152 189 227 204 160 150 167 189 190 182 179 180 176 164 147 103 40 350 278
332 321 318 329 333 335 331 331 335 322 328 334 330 339 3 161 203 242 258 277 2 10 339 337 344 336 340 344 39 31 18 19 1 336 334 6 8 350 240 278 290 279 222 211 255 21 67 88 236 279 317 326 313 284 249 257 280 301 281 261 253 250 248 251 253 246 232 217 178 142 213 246 220 158 123 104 64 34 133 125 88 88 87 75 66 56 48 43
328 312 300 319 323 328 345 327 314 322 332 332 333 10 180 205 244 262 316 96 303 342 333 335 350 341 346 353 10 11 11 28 8 345 358 24 6 21 21 242 267 260 216 187 170 137 144 159 156 99 0 333 289 252 219 230 259 268 261 259 254 239 231 239 234 225 229 203 139 137 226 257 231 117 80 67 52 39 52 70 61 61 64 64 62 58 54 52
325 305 278 301 309 316 330 292 306 318 324 338 334 210 228 242 245 298 19 186 246 341 0 353 351 346 337 330 1 4 353 16 11 0 4 1 19 31 30 25 347 279 194 72 167 174 160 133 109 142 56 344 304 255 201 208 231 243 247 255 255 239 222 225 215 212 217 146 121 133 224 243 144 86 59 56 57 52 54 57 58 57 56 60 60 58 56 54
327 301 252 277 299 306 312 293 309 313 319 347 321 216 246 269 279 33 357 0 5 355 348 330 331 331 314 313 5 3 346 24 7 358 357 346 15 48 53 41 5 331 7 351 286 226 156 123 93 192 141 353 323 293 256 210 233 249 261 266 257 250 231 218 201 201 200 128 123 133 225 212 143 81 55 61 62 57 60 59 59 59 55 56 55 52 53 51
329 297 229 257 293 304 315 307 313 313 322 341 249 228 256 285 49 79 336 29 36 328 327 325 313 323 356 15 24 10 17 52 13 358 9 352 12 36 43 43 18 352 324 307 314 312 237 143 39 4 20 353 340 342 341 318 288 280 300 290 268 271 263 244 231 208 181 129 137 162 211 208 139 79 70 79 72 61 61 60 56 52 47 45 44 41 40 42
329 279 203 243 294 304 322 324 313 317 332 294 250 251 267 338 62 83 357 18 2 335 354 321 302 327 57 43 41 38 29 36 16 3 25 28 28 18 10 24 16 359 323 304 28 322 265 124 55 46 24 354 348 349 323 296 284 273 267 269 274 308 305 282 28 17 348 145 145 171 207 159 97 101 102 89 73 64 57 50 45 39 33 31 30 28 26 28
333 186 191 248 299 307 326 337 318 330 335 268 257 306 59 49 23 42 26 350 339 344 323 254 311 353 46 39 39 53 50 0 0 4 44 49 36 24 20 24 8 360 351 334 351 328 277 104 76 107 77 11 357 327 312 307 310 310 240 257 20 347 310 270 135 72 282 225 139 169 210 156 125 126 111 83 64 55 44 38 33 25 22 22 21 18 14 14
329 168 165 300 306 308 324 334 327 342 295 269 280 46 67 66 31 35 37 336 321 333 315 350 32 356 21 42 34 29 10 342 356 8 40 47 38 29 28 35 4 357 4 337 330 29 323 328 78 74 350 12 358 291 287 318 305 301 301 72 47 294 279 270 206 175 216 201 134 187 212 179 161 147 104 71 51 38 27 24 21 18 16 13 10 7 4 4
291 183 167 330 320 317 313 318 349 325 259 265 98 87 72 94 73 31 20 323 280 287 337 40 45 350 10 24 26 15 0 359 7 12 26 24 60 32 15 36 15 357 5 322 298 57 319 284 103 63 348 349 328 266 238 163 307 319 357 30 267 245 224 226 222 210 202 186 163 181 200 217 195 136 78 55 42 28 16 11 11 12 10 3 359 357 355 355
264 197 204 316 323 311 304 320 95 222 247 241 120 116 100 98 103 78 340 295 280 299 16 57 49 9 7 6 16 15 2 4 10 10 18 17 55 61 14 32 16 353 0 316 306 15 322 292 141 48 346 325 291 276 277 118 122 271 230 212 254 300 323 233 236 266 224 185 167 168 187 198 132 63 59 53 39 22 10 5 3 3 1 357 354 351 349 349
216 216 221 331 324 316 342 75 175 231 248 31 64 108 120 112 113 116 308 299 296 329 14 85 69 30 13 14 30 24 352 345 3 12 20 10 20 64 32 23 3 354 357 255 333 0 320 292 264 2 347 296 268 1 345 342 332 269 219 171 331 298 282 238 224 275 265 202 166 170 185 149 66 42 58 52 31 16 9 1 356 354 353 352 350 347 344 341
242 245 2 351 330 48 110 144 161 264 207 97 89 122 117 58 110 136 183 275 295 351 2 0 33 24 17 21 37 33 344 326 355 11 18 19 7 30 27 7 350 356 0 173 52 12 322 280 289 346 12 338 13 19 352 347 349 346 0 8 355 336 287 249 200 184 248 236 172 192 185 121 71 56 58 39 17 9 5 357 351 349 347 345 343 340 339 336
279 291 7 342 336 126 200 224 114 307 232 109 93 119 100 353 179 134 165 225 259 344 340 321 27 17 19 22 20 24 348 320 352 6 6 19 12 12 18 359 340 334 326 14 51 33 332 284 287 340 55 51 56 71 30 10 3 358 10 4 343 341 326 300 295 110 219 213 194 238 193 118 94 66 37 19 7 3 1 354 346 342 341 339 336 334 333 331
330 340 350 338 23 160 268 258 143 190 162 92 97 135 130 201 194 162 196 233 265 194 193 127 51 17 26 20 1 11 2 325 342 6 3 11 23 26 9 347 329 317 319 354 49 110 243 271 268 215 119 102 115 122 67 18 6 357 10 4 343 336 334 321 334 335 280 231 197 217 171 125 105 50 19 10 4 359 358 355 344 338 337 334 333 331 330 327
319 314 326 341 4 208 264 293 180 189 125 132 173 153 143 170 85 272 255 305 342 242 170 83 58 14 24 9 343 7 14 341 342 7 5 5 29 34 5 346 338 341 354 358 355 330 281 306 307 272 175 136 161 161 124 36 32 21 5 9 358 345 332 311 302 292 278 5 353 251 167 114 83 23 7 5 360 353 353 351 343 338 334 330 330 328 326 324
307 276 274 347 17 57 286 354 340 229 149 170 185 151 159 167 104 0 313 350 12 315 329 73 60 339 358 358 347 14 20 5 343 355 0 8 32 38 22 21 8 358 11 4 329 314 305 334 350 335 354 16 346 28 40 31 62 64 18 24 22 10 354 326 294 279 302 13 344 293 1 53 7 356 357 357 352 346 344 342 338 335 331 328 327 325 323 322
322 313 301 349 35 53 71 55 342 266 175 179 186 174 199 181 126 106 287 257 115 324 311 332 282 275 338 4 357 11 12 0 322 336 352 11 32 44 46 51 26 12 25 15 326 308 302 7 27 22 15 6 23 57 61 66 88 81 47 36 33 27 16 352 310 315 349 337 315 354 8 339 333 347 349 346 343 340 337 334 333 331 328 326 323 321 321 318
319 350 355 339 353 89 107 95 355 264 180 204 207 175 191 194 146 156 207 234 37 319 277 238 266 288 6 14 352 354 353 344 354 357 359 12 30 55 79 62 27 23 26 12 354 323 294 30 28 20 35 71 97 97 97 99 94 82 63 46 36 32 29 22 11 358 343 307 277 29 359 326 327 341 339 337 336 333 329 328 327 324 323 322 321 319 318 316
338 55 13 330 318 313 38 35 11 33 182 216 233 186 198 208 230 223 205 215 235 261 254 211 195 328 11 0 324 351 348 337 7 15 7 15 20 34 88 76 30 24 10 14 22 349 311 42 29 34 84 106 114 110 104 100 95 86 73 53 37 33 32 26 14 349 331 300 302 337 330 317 324 331 330 331 327 321 319 319 319 318 318 319 318 317 317 316
354 41 22 312 313 341 359 5 344 231 193 205 218 197 213 234 255 265 11 239 219 210 264 254 183 60 0 271 314 354 2 343 345 4 7 17 16 9 35 62 26 16 10 16 30 6 338 47 49 84 111 121 125 120 115 106 92 73 59 46 32 25 25 27 29 13 323 288 300 313 311 310 318 321 322 322 318 315 313 314 315 315 316 317 317 316 316 315
342 336 344 296 273 313 0 272 242 227 187 201 223 184 199 245 263 85 210 244 226 188 215 265 348 39 330 286 315 340 7 341 311 325 344 1 23 18 25 31 356 358 9 18 18 1 348 66 110 124 129 136 146 145 130 109 80 56 43 32 21 17 19 27 33 19 329 294 303 299 296 307 333 328 319 316 316 315 313 315 317 316 317 319 319 318 317 315
339 338 328 293 280 113 209 213 231 248 225 214 217 177 195 225 245 0 243 231 253 254 234 301 331 346 248 264 327 346 1 331 301 303 315 328 14 13 10 14 353 349 5 13 13 2 353 77 152 187 167 146 168 185 190 225 276 32 31 18 10 8 6 7 9 3 345 307 301 299 307 329 338 327 318 316 318 317 316 318 319 316 317 319 319 318 315 312
344 354 333 289 278 165 227 236 223 243 265 351 180 178 209 194 117 307 248 191 219 255 20 340 318 299 263 345 7 350 334 310 293 291 288 282 20 18 20 24 12 8 6 2 16 16 354 17 150 205 193 150 176 197 209 233 253 6 20 8 3 360 356 353 347 348 349 296 312 333 334 326 322 320 318 319 320 319 318 318 317 314 312 312 315 316 313 310
Height
1531 1529 1528 1526 1525 1524 1523 1522 1521 1520 1519 1518 1517 1516 1516 1515 1514 1513 1511 1510 1509 1508 1508 1507 1507 1507 1507 1507 1507 1507 1507 1507 1507 1507 1508 1508 1507 1507 1507 1507 1506 1506 1506 1506 1507 1507 1507 1508 1507 1507 1508 1507 1508 1507 1507 1507 1508 1507 1504 1502 1495 1488 1486 1484 1483 1484 1483 1484 1483 1483 1487 1488 1488 1490 1493 1495 1497 1496 1497 1498 1499 1501 1504 1507 1510 1511 1511 1511
1531 1529 1528 1526 1525 1524 1523 1521 1521 1519 1519 1518 1517 1517 1516 1515 1514 1513 1512 1511 1510 1509 1508 1507 1507 1507 1507 1507 1507 1507 1507 1507 1508 1509 1509 1508 1508 1507 1507 1507 1507 1506 1506 1507 1507 1507 1507 1507 1507 1507 1506 1505 1506 1506 1506 1506 1506 1503 1500 1498 1491 1485 1484 1483 1483 1482 1483 1484 1482 1485 1488 1487 1487 1489 1492 1493 1493 1494 1495 1495 1497 1500 1504 1507 1507 1509 1510 1510
1531 1529 1528 1526 1525 1524 1522 1521 1520 1519 1518 1518 1517 1517 1516 1515 1514 1513 1512 1511 1510 1509 1508 1508 1508 1507 1507 1507 1508 1508 1508 1507 1508 1509 1509 1508 1508 1507 1507 1507 1507 1506 1506 1507 1507 1507 1507 1507 1507 1506 1505 1503 1503 1504 1504 1504 1504 1501 1499 1494 1487 1485 1485 1484 1487 1486 1485 1485 1484 1486 1488 1487 1487 1489 1490 1491 1491 1491 1491 1491 1493 1496 1504 1508 1505 1506 1508 1509
1531 1529 1527 1526 1525 1523 1522 1521 1520 1519 1518 1517 1517 1516 1516 1515 1514 1513 1513 1512 1511 1510 1509 1508 1508 1508 1508 1508 1508 1508 1508 1507 1508 1510 1509 1508 1508 1507 1507 1507 1507 1506 1506 1507 1507 1507 1507 1507 1506 1506 1504 1501 1502 1503 1502 1501 1501 1500 1496 1491 1486 1487 1488 1487 1491 1491 1489 1489 1487 1486 1487 1488 1488 1489 1489 1489 1491 1489 1487 1489 1490 1492 1499 1504 1503 1504 1506 1507
1531 1529 1527 1526 1525 1523 1522 1521 1520 1519 1518 1517 1517 1516 1516 1515 1514 1514 1513 1512 1511 1510 1510 1509 1508 1508 1508 1508 1508 1508 1508 1505 1506 1509 1509 1508 1508 1508 1507 1507 1507 1506 1507 1507 1507 1507 1507 1507 1506 1505 1503 1499 1500 1501 1499 1499 1500 1498 1493 1491 1490 1490 1491 1491 1493 1493 1492 1491 1490 1487 1487 1488 1488 1488 1487 1487 1488 1486 1486 1488 1489 1491 1495 1498 1501 1502 1503 1505
1530 1529 1527 1526 1525 1523 1522 1521 1520 1519 1518 1517 1517 1516 1516 1515 1515 1514 1513 1512 1511 1511 1510 1509 1509 1508 1508 1508 1508 1508 1507 1505 1507 1509 1508 1508 1508 1508 1508 1507 1507 1507 1507 1508 1508 1507 1506 1506 1505 1503 1501 1499 1499 1499 1497 1498 1500 1497 1492 1493 1493 1493 1494 1494 1494 1493 1492 1491 1490 1488 1487 1488 1487 1485 1485 1486 1486 1486 1487 1487 1488 1490 1492 1495 1499 1501 1502 1504
1530 1529 1527 1526 1525 1523 1522 1521 1520 1519 1518 1517 1517 1516 1515 1515 1514 1514 1513 1512 1511 1511 1510 1510 1509 1508 1508 1508 1508 1507 1507 1507 1508 1508 1507 1508 1508 1508 1507 1507 1507 1507 1508 1508 1508 1507 1506 1505 1503 1502 1501 1498 1499 1498 1498 1499 1500 1498 1494 1492 1493 1494 1495 1496 1495 1494 1493 1491 1490 1489 1488 1487 1486 1485 1485 1485 1485 1487 1487 1487 1488 1489 1491 1493 1497 1501 1500 1501
1530 1528 1527 1525 1524 1523 1522 1521 1520 1519 1518 1517 1517 1516 1515 1514 1514 1514 1513 1512 1512 1511 1510 1510 1509 1509 1508 1508 1507 1506 1507 1509 1509 1508 1507 1507 1507 1507 1507 1507 1507 1507 1508 1508 1508 1507 1506 1505 1503 1503 1500 1497 1499 1499 1499 1500 1497 1496 1494 1492 1493 1494 1494 1495 1495 1494 1493 1492 1491 1490 1489 1488 1487 1486 1483 1482 1484 1487 1486 1488 1490 1491 1491 1491 1496 1500 1498 1498
1530 1528 1527 1525 1524 1523 1522 1521 1520 1519 1518 1517 1516 1515 1515 1514 1514 1513 1513 1512 1512 1511 1511 1510 1509 1509 1508 1508 1507 1505 1508 1510 1509 1507 1507 1506 1507 1507 1507 1508 1508 1507 1508 1508 1508 1507 1506 1505 1504 1504 1501 1499 1501 1499 1499 1499 1494 1493 1494 1493 1493 1492 1492 1493 1492 1493 1492 1492 1491 1490 1489 1488 1488 1487 1483 1481 1485 1486 1486 1488 1489 1490 1491 1491 1494 1497 1497 1497
1530 1528 1526 1525 1524 1523 1522 1521 1520 1519 1518 1517 1516 1515 1514 1513 1513 1513 1512 1512 1512 1511 1511 1510 1510 1509 1508 1508 1505 1505 1508 1509 1508 1508 1507 1507 1507 1507 1507 1508 1508 1507 1508 1507 1507 1507 1506 1505 1505 1505 1503 1501 1500 1499 1499 1498 1493 1494 1495 1493 1493 1492 1491 1491 1490 1490 1491 1490 1489 1488 1487 1486 1487 1486 1480 1480 1484 1485 1486 1487 1487 1489 1490 1491 1492 1493 1495 1496
1530 1528 1526 1524 1523 1522 1522 1521 1520 1519 1517 1516 1515 1514 1513 1513 1512 1512 1512 1512 1512 1511 1511 1510 1510 1509 1509 1507 1505 1506 1509 1509 1508 1508 1507 1507 1507 1507 1507 1507 1507 1507 1507 1507 1507 1507 1506 1506 1506 1505 1502 1500 1499 1498 1497 1496 1495 1495 1495 1493 1492 1490 1489 1488 1487 1488 1488 1487 1487 1488 1486 1484 1484 1480 1475 1479 1482 1483 1485 1485 1485 1486 1487 1489 1490 1491 1493 1495
1530 1528 1526 1524 1523 1522 1521 1521 1520 1518 1517 1516 1514 1513 1512 1511 1511 1511 1512 1512 1511 1511 1511 1510 1510 1509 1509 1507 1507 1508 1509 1508 1508 1507 1507 1507 1507 1507 1507 1507 1506 1507 1507 1506 1506 1506 1506 1506 1506 1504 1501 1500 1498 1495 1495 1496 1496 1495 1494 1492 1489 1486 1485 1484 1484 1485 1485 1484 1485 1487 1487 1484 1478 1472 1474 1480 1480 1480 1482 1483 1483 1483 1485 1486 1487 1489 1490 1493
1529 1527 1525 1524 1522 1521 1521 1520 1519 1518 1517 1515 1513 1512 1511 1510 1510 1511 1511 1511 1511 1511 1511 1510 1510 1509 1508 1507 1508 1509 1508 1508 1507 1507 1507 1506 1506 1506 1506 1506 1506 1506 1506 1506 1505 1505 1505 1505 1505 1503 1502 1501 1497 1495 1496 1495 1495 1493 1491 1489 1487 1484 1480 1478 1480 1481 1481 1481 1482 1486 1487 1478 1470 1471 1476 1478 1478 1479 1480 1480 1481 1481 1482 1483 1484 1486 1487 1490
1529 1527 1525 1524 1522 1521 1520 1520 1519 1518 1516 1514 1513 1511 1510 1510 1510 1511 1511 1511 1511 1511 1510 1510 1510 1509 1508 1508 1509 1509 1508 1508 1507 1507 1507 1506 1506 1506 1505 1505 1505 1505 1504 1504 1504 1504 1504 1504 1504 1503 1502 1501 1498 1496 1495 1492 1492 1490 1488 1486 1485 1485 1477 1471 1474 1476 1477 1478 1478 1482 1481 1471 1465 1470 1474 1474 1475 1478 1477 1477 1478 1478 1479 1480 1481 1483 1485 1487
1529 1527 1525 1524 1522 1521 1520 1519 1518 1517 1516 1514 1512 1511 1510 1510 1510 1511 1511 1511 1511 1510 1510 1510 1509 1509 1507 1507 1509 1509 1508 1508 1507 1507 1506 1506 1506 1505 1505 1505 1504 1504 1503 1503 1503 1502 1502 1503 1503 1501 1499 1499 1498 1496 1492 1489 1487 1486 1489 1487 1480 1479 1475 1468 1469 1472 1474 1473 1474 1477 1474 1467 1464 1465 1468 1471 1473 1475 1475 1474 1475 1475 1476 1477 1478 1481 1483 1484
1529 1527 1525 1524 1522 1521 1520 1519 1518 1517 1515 1513 1512 1511 1510 1510 1510 1511 1510 1511 1511 1510 1510 1509 1509 1509 1506 1506 1508 1508 1508 1508 1507 1507 1506 1505 1505 1505 1504 1504 1503 1503 1502 1501 1501 1501 1501 1501 1501 1499 1497 1496 1494 1492 1489 1487 1485 1482 1486 1486 1477 1474 1473 1468 1467 1469 1471 1469 1469 1470 1468 1466 1464 1462 1463 1465 1469 1472 1472 1472 1472 1473 1473 1475 1476 1479 1481 1482
1529 1527 1525 1524 1522 1521 1520 1519 1517 1516 1515 1513 1512 1511 1510 1510 1510 1511 1510 1510 1510 1510 1510 1509 1509 1509 1507 1507 1508 1508 1508 1508 1506 1506 1505 1504 1504 1503 1503 1503 1502 1502 1501 1500 1500 1500 1500 1500 1499 1496 1495 1493 1489 1489 1490 1489 1484 1479 1480 1481 1479 1474 1473 1469 1464 1464 1468 1467 1465 1465 1467 1465 1462 1461 1460 1461 1467 1470 1469 1469 1470 1471 1471 1473 1474 1477 1480 1482
1529 1527 1525 1523 1522 1520 1519 1519 1517 1516 1515 1513 1512 1511 1511 1510 1511 1511 1510 1510 1510 1510 1509 1509 1509 1507 1507 1507 1508 1508 1508 1507 1506 1505 1504 1503 1503 1502 1502 1502 1501 1501 1500 1499 1498 1498 1498 1497 1495 1491 1489 1489 1487 1487 1490 1487 1483 1481 1480 1480 1478 1473 1473 1472 1464 1462 1466 1466 1464 1463 1466 1465 1461 1460 1458 1461 1468 1468 1466 1467 1468 1469 1470 1471 1472 1475 1479 1482
1529 1527 1525 1523 1522 1520 1519 1518 1517 1516 1515 1513 1512 1511 1511 1511 1511 1511 1511 1510 1510 1509 1508 1509 1509 1507 1507 1508 1509 1508 1507 1506 1505 1504 1504 1503 1502 1501 1501 1501 1500 1499 1496 1494 1495 1496 1495 1493 1491 1490 1487 1486 1485 1485 1485 1483 1482 1484 1482 1481 1479 1472 1470 1470 1464 1462 1465 1466 1466 1464 1464 1462 1461 1459 1457 1460 1465 1465 1465 1466 1467 1468 1468 1469 1471 1473 1476 1478
1528 1526 1525 1523 1521 1520 1519 1518 1517 1516 1514 1513 1512 1511 1511 1511 1510 1509 1511 1511 1511 1510 1509 1510 1510 1509 1508 1508 1509 1507 1506 1505 1504 1504 1503 1502 1501 1501 1500 1499 1498 1496 1493 1492 1492 1493 1493 1491 1488 1489 1488 1486 1486 1485 1484 1482 1483 1484 1482 1481 1480 1476 1471 1466 1463 1463 1466 1468 1465 1463 1462 1460 1460 1459 1457 1460 1462 1462 1463 1464 1465 1465 1466 1468 1469 1471 1473 1475
1528 1526 1524 1523 1521 1520 1518 1518 1517 1516 1515 1513 1512 1512 1512 1512 1509 1509 1512 1512 1511 1511 1511 1511 1510 1510 1509 1509 1508 1507 1506 1504 1503 1503 1502 1501 1501 1499 1498 1497 1495 1492 1491 1492 1492 1492 1492 1490 1487 1487 1487 1487 1486 1485 1484 1484 1483 1483 1482 1479 1475 1474 1470 1463 1462 1463 1466 1468 1461 1458 1461 1459 1457 1457 1456 1458 1458 1458 1461 1462 1463 1463 1464 1467 1469 1470 1472 1473
1527 1525 1523 1522 1521 1519 1518 1518 1517 1516 1515 1514 1513 1513 1513 1513 1511 1511 1512 1511 1511 1511 1511 1511 1510 1509 1509 1508 1507 1506 1505 1503 1501 1501 1501 1501 1500 1498 1497 1495 1493 1491 1491 1492 1492 1491 1490 1487 1485 1486 1487 1486 1485 1485 1485 1484 1483 1482 1479 1477 1475 1471 1468 1462 1462 1463 1465 1466 1458 1454 1459 1456 1454 1455 1455 1456 1456 1456 1458 1460 1462 1463 1463 1465 1468 1470 1471 1472
1527 1525 1523 1522 1521 1519 1518 1517 1517 1516 1515 1515 1515 1514 1513 1513 1512 1512 1512 1510 1510 1510 1511 1510 1510 1509 1509 1508 1507 1506 1504 1502 1500 1501 1501 1501 1499 1498 1497 1494 1492 1492 1491 1489 1490 1491 1489 1484 1483 1486 1487 1485 1484 1484 1484 1482 1481 1481 1477 1477 1475 1471 1469 1466 1464 1463 1463 1463 1457 1453 1455 1451 1449 1452 1452 1453 1454 1454 1456 1459 1461 1462 1463 1464 1465 1468 1469 1470
1527 1524 1523 1522 1520 1519 1518 1517 1517 1516 1516 1516 1515 1514 1513 1513 1512 1512 1512 1510 1509 1509 1510 1510 1509 1509 1508 1507 1506 1505 1503 1503 1502 1501 1501 1501 1499 1498 1496 1494 1493 1491 1489 1489 1490 1490 1486 1482 1484 1487 1486 1484 1483 1481 1482 1481 1479 1478 1477 1476 1475 1471 1468 1467 1464 1462 1461 1461 1458 1456 1457 1450 1446 1450 1449 1449 1453 1454 1454 1457 1459 1461 1462 1464 1464 1465 1466 1468
1526 1524 1523 1521 1520 1519 1518 1517 1517 1516 1516 1516 1515 1514 1513 1513 1513 1512 1513 1510 1507 1507 1508 1509 1509 1509 1508 1507 1506 1505 1504 1503 1503 1502 1501 1501 1499 1497 1494 1494 1493 1489 1489 1491 1491 1488 1484 1484 1486 1486 1484 1483 1483 1479 1479 1481 1479 1479 1478 1475 1475 1472 1468 1465 1462 1460 1462 1462 1457 1457 1460 1452 1445 1448 1447 1446 1451 1454 1455 1456 1457 1460 1461 1463 1464 1464 1465 1467
1526 1524 1523 1522 1520 1519 1518 1518 1517 1517 1516 1516 1516 1514 1513 1513 1513 1513 1512 1507 1503 1505 1507 1507 1508 1507 1507 1507 1505 1504 1503 1502 1502 1502 1501 1500 1499 1498 1494 1492 1492 1491 1491 1491 1489 1486 1483 1485 1487 1486 1484 1482 1481 1479 1478 1480 1479 1479 1478 1474 1473 1471 1467 1465 1460 1459 1462 1461 1455 1455 1459 1456 1449 1447 1445 1446 1450 1452 1454 1455 1455 1458 1460 1461 1462 1463 1464 1465
1525 1524 1523 1521 1520 1519 1519 1518 1517 1517 1517 1517 1515 1514 1514 1513 1512 1513 1512 1508 1506 1507 1508 1508 1508 1507 1507 1507 1505 1502 1502 1502 1501 1501 1501 1499 1498 1499 1495 1491 1491 1491 1491 1491 1491 1489 1486 1485 1486 1486 1484 1483 1480 1478 1477 1479 1479 1477 1475 1474 1473 1470 1468 1465 1460 1458 1459 1457 1456 1453 1454 1458 1455 1447 1445 1448 1450 1450 1451 1454 1455 1455 1457 1458 1460 1461 1462 1464
1525 1523 1522 1521 1520 1519 1518 1518 1518 1517 1517 1516 1514 1514 1513 1512 1513 1513 1511 1513 1512 1509 1510 1509 1509 1509 1508 1507 1505 1503 1503 1503 1500 1500 1500 1499 1498 1497 1494 1492 1492 1491 1490 1491 1490 1488 1487 1485 1485 1485 1485 1483 1480 1477 1477 1480 1479 1474 1473 1474 1472 1470 1468 1464 1460 1459 1457 1457 1459 1453 1451 1460 1457 1447 1446 1450 1450 1450 1450 1451 1452 1452 1454 1457 1460 1462 1463 1465
1524 1523 1522 1521 1519 1519 1518 1517 1517 1517 1516 1515 1514 1514 1512 1512 1514 1510 1509 1515 1513 1509 1512 1510 1508 1509 1508 1505 1504 1504 1504 1503 1501 1500 1500 1499 1497 1496 1494 1493 1493 1491 1490 1490 1487 1484 1486 1487 1487 1486 1485 1482 1480 1478 1479 1480 1477 1473 1474 1474 1472 1470 1467 1463 1462 1460 1458 1461 1462 1455 1452 1458 1455 1444 1444 1449 1451 1450 1447 1448 1451 1453 1456 1460 1461 1463 1464 1465
1523 1522 1521 1520 1519 1518 1517 1517 1516 1516 1515 1514 1513 1513 1512 1513 1512 1509 1511 1516 1513 1510 1511 1509 1508 1510 1508 1504 1503 1503 1503 1503 1502 1501 1499 1498 1497 1495 1495 1494 1493 1489 1487 1487 1486 1485 1486 1488 1488 1487 1485 1483 1481 1480 1479 1480 1477 1475 1475 1472 1471 1470 1466 1464 1462 1460 1464 1466 1462 1458 1454 1456 1456 1447 1444 1452 1454 1450 1448 1451 1456 1457 1460 1462 1463 1464 1465 1465
1522 1521 1520 1519 1518 1517 1517 1517 1516 1515 1514 1513 1513 1512 1513 1511 1507 1508 1514 1515 1512 1511 1509 1509 1509 1508 1508 1507 1504 1502 1502 1502 1502 1500 1498 1497 1496 1495 1494 1494 1492 1488 1484 1483 1484 1485 1486 1486 1486 1486 1486 1484 1482 1479 1478 1479 1477 1476 1473 1470 1473 1473 1470 1471 1467 1464 1470 1470 1461 1458 1455 1455 1461 1456 1451 1456 1457 1455 1456 1459 1461 1462 1462 1464 1466 1466 1467 1467
1520 1519 1519 1518 1517 1516 1516 1516 1515 1514 1513 1512 1512 1512 1512 1509 1507 1510 1512 1511 1514 1514 1511 1512 1511 1508 1509 1507 1505 1505 1503 1502 1502 1501 1500 1498 1497 1497 1496 1496 1495 1491 1488 1486 1486 1484 1484 1484 1484 1485 1486 1484 1481 1477 1475 1475 1474 1473 1470 1470 1476 1479 1479 1482 1478 1471 1471 1468 1461 1458 1458 1458 1460 1459 1458 1460 1461 1461 1462 1463 1464 1466 1467 1467 1468 1469 1469 1470
1518 1518 1517 1517 1517 1516 1515 1515 1514 1513 1512 1512 1512 1511 1509 1510 1512 1514 1512 1511 1517 1517 1513 1514 1512 1509 1508 1505 1505 1505 1503 1504 1502 1501 1501 1498 1498 1499 1498 1498 1498 1496 1494 1491 1488 1486 1485 1486 1484 1484 1485 1484 1481 1477 1475 1474 1471 1469 1468 1470 1477 1482 1486 1487 1480 1474 1472 1468 1460 1458 1461 1461 1458 1461 1463 1463 1465 1465 1465 1466 1468 1469 1470 1470 1471 1471 1472 1472
1517 1516 1516 1516 1516 1515 1514 1514 1513 1513 1512 1512 1511 1509 1511 1513 1514 1515 1514 1512 1515 1515 1513 1514 1512 1508 1507 1506 1507 1506 1504 1505 1503 1501 1500 1498 1498 1499 1499 1499 1498 1497 1496 1492 1491 1490 1491 1492 1487 1485 1487 1486 1482 1479 1479 1477 1473 1470 1469 1469 1473 1477 1481 1482 1478 1475 1473 1469 1463 1462 1465 1462 1462 1467 1466 1463 1466 1467 1468 1469 1470 1471 1472 1472 1473 1473 1473 1473
1516 1515 1516 1516 1515 1515 1514 1513 1513 1512 1511 1511 1508 1507 1511 1515 1515 1515 1515 1513 1513 1513 1512 1513 1511 1507 1505 1506 1506 1507 1507 1507 1504 1502 1501 1500 1502 1503 1502 1502 1500 1499 1497 1495 1496 1493 1491 1491 1488 1487 1488 1486 1484 1482 1481 1480 1477 1472 1469 1471 1474 1472 1473 1478 1481 1478 1476 1472 1468 1466 1464 1460 1462 1467 1463 1463 1466 1467 1469 1471 1471 1473 1473 1473 1474 1473 1474 1475
1515 1515 1515 1515 1515 1514 1513 1513 1512 1511 1511 1510 1507 1507 1511 1515 1514 1514 1516 1515 1514 1515 1512 1511 1511 1507 1506 1505 1504 1506 1509 1508 1504 1502 1503 1504 1505 1505 1504 1505 1503 1502 1501 1499 1499 1495 1491 1489 1487 1488 1488 1485 1486 1484 1481 1482 1481 1474 1470 1473 1474 1471 1471 1476 1481 1480 1478 1477 1473 1469 1464 1459 1462 1466 1462 1463 1467 1467 1470 1471 1471 1473 1473 1474 1475 1475 1475 1476
1515 1515 1515 1515 1515 1513 1513 1512 1511 1512 1511 1508 1508 1511 1513 1514 1514 1514 1516 1516 1516 1516 1513 1511 1513 1513 1510 1507 1506 1507 1507 1507 1504 1502 1504 1506 1506 1505 1505 1506 1506 1503 1503 1502 1500 1499 1498 1493 1487 1489 1490 1486 1486 1485 1481 1481 1480 1475 1472 1474 1474 1474 1473 1473 1479 1482 1478 1479 1476 1470 1467 1463 1465 1470 1466 1465 1470 1472 1471 1472 1472 1473 1474 1474 1475 1476 1476 1476
1515 1515 1515 1515 1514 1513 1512 1512 1511 1511 1510 1508 1511 1516 1514 1514 1515 1516 1516 1517 1516 1514 1512 1513 1516 1516 1513 1510 1509 1508 1507 1506 1505 1503 1505 1506 1507 1507 1506 1507 1507 1503 1503 1504 1502 1501 1501 1497 1492 1491 1491 1488 1485 1485 1482 1480 1478 1476 1475 1474 1474 1479 1479 1475 1480 1483 1479 1481 1479 1472 1470 1466 1463 1468 1470 1471 1475 1476 1473 1473 1473 1474 1475 1475 1475 1476 1476 1475
1514 1515 1514 1514 1513 1513 1512 1511 1512 1511 1508 1508 1512 1515 1514 1514 1516 1517 1517 1517 1516 1513 1513 1516 1517 1516 1514 1512 1511 1510 1509 1509 1507 1506 1508 1508 1508 1508 1505 1506 1507 1504 1503 1503 1502 1500 1500 1501 1498 1493 1491 1490 1487 1485 1483 1481 1479 1476 1475 1475 1474 1477 1478 1477 1478 1477 1476 1478 1479 1477 1474 1467 1463 1468 1473 1476 1477 1476 1476 1476 1475 1475 1476 1477 1477 1476 1475 1475
1515 1514 1513 1513 1513 1512 1512 1511 1511 1510 1508 1509 1511 1513 1514 1514 1515 1517 1518 1517 1516 1514 1514 1515 1516 1516 1514 1512 1512 1513 1512 1510 1509 1508 1509 1509 1508 1507 1505 1505 1506 1505 1503 1502 1502 1502 1501 1503 1501 1495 1491 1491 1491 1491 1489 1487 1482 1477 1476 1479 1479 1476 1476 1477 1476 1474 1474 1476 1477 1480 1477 1469 1469 1473 1474 1477 1478 1477 1478 1478 1477 1477 1477 1478 1478 1477 1476 1476
1515 1512 1512 1513 1513 1512 1512 1511 1510 1510 1509 1511 1513 1514 1515 1515 1515 1517 1518 1518 1517 1516 1515 1515 1514 1515 1514 1512 1512 1514 1515 1512 1509 1509 1508 1508 1509 1508 1506 1506 1505 1503 1502 1501 1502 1503 1503 1504 1502 1499 1496 1496 1497 1498 1496 1492 1488 1483 1480 1481 1482 1481 1480 1482 1481 1476 1473 1474 1475 1477 1477 1474 1475 1476 1476 1479 1479 1478 1479 1479 1478 1478 1478 1478 1478 1477 1477 1476
1514 1511 1511 1513 1512 1512 1511 1510 1511 1512 1509 1511 1513 1514 1516 1516 1515 1516 1517 1517 1516 1515 1516 1515 1514 1514 1514 1513 1513 1514 1515 1512 1508 1509 1509 1507 1508 1507 1506 1506 1505 1504 1502 1501 1501 1503 1503 1504 1503 1501 1498 1499 1500 1500 1499 1497 1493 1490 1488 1486 1484 1483 1484 1486 1486 1480 1476 1476 1476 1476 1479 1481 1478 1477 1479 1481 1481 1482 1482 1481 1480 1479 1479 1478 1477 1476 1476 1475
1514 1512 1513 1513 1512 1512 1511 1509 1511 1511 1510 1512 1515 1515 1516 1516 1515 1515 1515 1515 1515 1515 1515 1514 1515 1515 1514 1514 1514 1514 1515 1513 1509 1509 1508 1506 1506 1507 1506 1506 1506 1503 1501 1500 1501 1504 1504 1503 1503 1501 1498 1500 1502 1500 1500 1501 1499 1498 1498 1495 1491 1488 1488 1487 1485 1483 1482 1481 1480 1479 1482 1483 1480 1479 1482 1483 1484 1485 1485 1484 1483 1481 1480 1479 1478 1476 1475 1473
1515 1514 1514 1513 1512 1512 1510 1508 1509 1509 1511 1514 1514 1514 1516 1516 1515 1515 1514 1514 1514 1514 1514 1514 1515 1515 1515 1514 1514 1513 1514 1514 1510 1507 1506 1505 1506 1507 1507 1506 1505 1502 1501 1501 1502 1504 1504 1501 1501 1501 1500 1503 1503 1502 1503 1504 1506 1509 1507 1503 1500 1495 1492 1488 1484 1483 1484 1484 1483 1483 1483 1483 1482 1482 1483 1485 1486 1486 1486 1487 1486 1484 1483 1481 1479 1477 1475 1473
1515 1514 1514 1513 1513 1512 1510 1509 1509 1509 1511 1513 1513 1514 1515 1515 1516 1517 1515 1515 1516 1514 1514 1515 1515 1515 1514 1513 1513 1512 1512 1514 1512 1508 1506 1505 1505 1506 1507 1506 1505 1503 1503 1505 1504 1503 1503 1501 1501 1503 1502 1503 1505 1506 1509 1510 1511 1514 1512 1508 1506 1502 1499 1497 1491 1488 1489 1489 1487 1487 1486 1485 1484 1484 1486 1488 1489 1489 1488 1488 1487 1487 1485 1483 1480 1478 1476 1474
1515 1514 1513 1512 1512 1512 1512 1512 1512 1511 1511 1513 1513 1514 1514 1514 1515 1517 1516 1516 1516 1516 1515 1515 1514 1514 1513 1513 1513 1513 1511 1511 1512 1510 1507 1505 1504 1506 1507 1506 1506 1505 1505 1506 1504 1502 1500 1500 1502 1505 1507 1510 1512 1513 1514 1514 1513 1515 1515 1512 1509 1507 1504 1502 1498 1497 1500 1499 1493 1490 1492 1492 1490 1489 1491 1493 1493 1492 1490 1489 1488 1487 1486 1484 1482 1479 1476 1474
1516 1515 1515 1514 1513 1512 1512 1513 1513 1512 1511 1512 1513 1513 1513 1513 1514 1515 1516 1516 1516 1516 1516 1514 1514 1514 1514 1514 1514 1514 1513 1510 1510 1510 1508 1506 1505 1505 1507 1506 1505 1505 1505 1505 1504 1501 1498 1500 1503 1506 1510 1514 1514 1513 1514 1515 1515 1516 1517 1515 1513 1510 1507 1506 1505 1505 1505 1502 1496 1496 1500 1501 1497 1495 1498 1499 1497 1495 1493 1490 1489 1486 1485 1484 1481 1479 1477 1474
1516 1517 1518 1517 1515 1512 1511 1513 1513 1513 1513 1513 1513 1513 1514 1513 1513 1514 1515 1516 1516 1516 1515 1514 1514 1513 1514 1514 1514 1514 1514 1512 1509 1509 1508 1506 1506 1504 1504 1505 1503 1503 1504 1502 1503 1502 1500 1502 1505 1507 1512 1515 1513 1513 1514 1514 1516 1516 1515 1514 1513 1511 1510 1510 1510 1510 1508 1505 1502 1501 1504 1503 1501 1501 1502 1502 1500 1497 1494 1491 1489 1487 1484 1482 1480 1477 1475 1473
1518 1517 1518 1518 1516 1515 1514 1515 1516 1514 1513 1513 1513 1513 1514 1513 1513 1515 1515 1516 1515 1514 1515 1514 1514 1514 1513 1513 1514 1513 1513 1513 1512 1511 1509 1508 1508 1505 1504 1505 1503 1502 1502 1501 1504 1504 1502 1504 1506 1507 1513 1517 1514 1513 1513 1512 1513 1513 1511 1511 1510 1509 1509 1510 1510 1511 1511 1510 1507 1506 1507 1506 1505 1505 1504 1502 1500 1497 1494 1491 1488 1486 1483 1480 1477 1475 1473 1471
1519 1518 1518 1518 1516 1516 1517 1517 1516 1513 1512 1514 1513 1513 1514 1514 1513 1515 1516 1516 1515 1513 1514 1515 1514 1514 1513 1513 1513 1512 1511 1513 1513 1512 1511 1509 1508 1507 1507 1507 1506 1502 1501 1502 1504 1503 1502 1505 1508 1508 1512 1517 1516 1513 1510 1509 1511 1511 1510 1509 1510 1510 1509 1509 1511 1511 1511 1510 1508 1507 1506 1504 1503 1504 1503 1501 1499 1496 1492 1489 1486 1483 1481 1478 1475 1471 1469 1467
1519 1518 1519 1517 1514 1515 1516 1516 1515 1513 1510 1511 1512 1512 1513 1514 1514 1516 1516 1515 1515 1514 1514 1515 1514 1514 1514 1513 1513 1512 1511 1512 1512 1511 1511 1510 1510 1510 1509 1509 1508 1504 1502 1503 1505 1505 1503 1503 1506 1507 1508 1513 1514 1511 1510 1509 1508 1509 1510 1510 1510 1512 1511 1511 1511 1511 1511 1512 1510 1506 1502 1501 1502 1503 1501 1499 1497 1494 1490 1488 1485 1481 1479 1477 1473 1470 1467 1464
1519 1518 1519 1517 1514 1514 1515 1513 1513 1513 1509 1509 1511 1512 1513 1514 1515 1517 1516 1515 1516 1515 1515 1516 1515 1513 1512 1512 1513 1513 1512 1512 1512 1511 1511 1511 1510 1511 1510 1510 1509 1507 1505 1504 1504 1507 1505 1502 1503 1503 1503 1506 1507 1507 1508 1507 1505 1506 1509 1511 1511 1511 1511 1512 1510 1509 1510 1511 1509 1506 1505 1505 1504 1502 1499 1497 1494 1491 1488 1486 1484 1481 1478 1476 1474 1471 1467 1462